Weather reports worldwide

Advertisment
Trawscoed, United Kingdom (3503): temperature & dewpoint: 19.09.2017 10:00:00 - 25.09.2017 10:00:00 (BST)Trawscoed, United Kingdom (3503): temperature -20cm & temperature -100cm: 19.09.2017 10:00:00 - 25.09.2017 10:00:00 (BST)Trawscoed, United Kingdom (3503): wind speed & gusts: 19.09.2017 10:00:00 - 25.09.2017 10:00:00 (BST)Trawscoed, United Kingdom (3503): wind direction: 19.09.2017 10:00:00 - 25.09.2017 10:00:00 (BST)Trawscoed, United Kingdom (3503): reduced air pressure: 19.09.2017 10:00:00 - 25.09.2017 10:00:00 (BST)Trawscoed, United Kingdom (3503): visibility: 19.09.2017 10:00:00 - 25.09.2017 10:00:00 (BST)Trawscoed, United Kingdom (3503): precipitation: 19.09.2017 10:00:00 - 25.09.2017 10:00:00 (BST)
Date & Time tt [°C] td [°C] tt -20cm [°C] tt -100cm [°C] ff [km/h] ff [kn] fx [km/h] fx [kn] dd ppp [hPa] vv [km] rr [mm]
25.09.2017 10:00:00 13,7 13,2 15,2 15,2 8 4 - - W 1020,7 6 0,0
25.09.2017 09:00:00 13,4 13,0 - - 8 4 - - WNW 1020,5 7 0,0
25.09.2017 08:00:00 13,6 13,4 - - 5 3 - - W 1019,9 4,3 0,0
25.09.2017 07:00:00 13,3 13,0 - - 4 2 - - NNW 1019,2 6 0,0
25.09.2017 06:00:00 13,8 13,6 - - 2 1 - - WNW 1018,7 6 0,0
25.09.2017 05:00:00 13,8 13,5 - - 2 1 - - S 1018,8 6 0,0
25.09.2017 04:00:00 13,8 13,5 - - 2 1 - - NW 1018,5 5 0,0
25.09.2017 03:00:00 13,9 13,6 - - 0 0 - - N 1018,6 6 0,0
25.09.2017 02:00:00 14,1 13,8 - - 0 0 - - N 1018,8 3,3 0,0
25.09.2017 01:00:00 14,1 13,8 - - 2 1 - - WNW 1018,6 5 0,0
25.09.2017 00:00:00 14,1 13,8 - - 4 2 - - WNW 1018,5 4,7 0,0
24.09.2017 23:00:00 14,2 13,9 - - 8 4 - - WNW 1018,5 5 0,0
24.09.2017 22:00:00 14,6 14,3 - - 5 3 - - WNW 1018,3 6 0,0
24.09.2017 21:00:00 14,8 14,3 - - 5 3 - - W 1018,1 7 0,2
24.09.2017 20:00:00 15,2 14,7 - - 8 4 - - W 1017,7 9 1,2
24.09.2017 19:00:00 15,5 14,9 - - 2 1 - - NNE 1017,2 5 0,8
24.09.2017 18:00:00 15,7 14,8 - - 4 2 - - SE 1016,9 4,7 1,2
24.09.2017 17:00:00 15,9 15,1 - - 4 2 - - SE 1016,8 3,2 2,6
24.09.2017 16:00:00 16,2 14,8 - - 4 2 - - S 1016,6 5 0,4
24.09.2017 15:00:00 17,6 13,5 - - 8 4 - - SSW 1016,4 40 0,0
24.09.2017 14:00:00 18,3 13,8 - - 11 6 - - SE 1016,1 30 0,0
24.09.2017 13:00:00 18,1 13,7 - - 8 4 - - SSE 1016,1 28 0,0
24.09.2017 12:00:00 17,6 14,1 - - 4 2 - - SE 1016,1 40 0,0
24.09.2017 11:00:00 16,8 12,2 - - 13 7 - - SE 1016,2 29 0,0
24.09.2017 10:00:00 16,6 11,8 15,0 15,2 11 6 - - SE 1016,3 50 0,0
24.09.2017 09:00:00 15,6 11,4 - - 5 3 - - E 1016,0 50 0,0
24.09.2017 08:00:00 14,5 10,9 - - 9 5 - - SE 1015,5 35 0,0
24.09.2017 07:00:00 14,2 11,2 - - 11 6 - - SE 1015,2 45 0,0
24.09.2017 06:00:00 11,9 10,2 - - 5 3 - - SSE 1015,5 30 0,0
24.09.2017 05:00:00 10,5 9,8 - - 2 1 - - E 1015,5 40 0,0
24.09.2017 04:00:00 10,8 9,5 - - 0 0 - - N 1015,9 40 0,0
24.09.2017 03:00:00 12,1 10,3 - - 5 3 - - N 1016,0 40 0,0
24.09.2017 02:00:00 12,1 10,6 - - 4 2 - - NE 1016,6 50 0,0
24.09.2017 01:00:00 10,6 8,0 - - 4 2 - - N 1017,1 45 0,0
24.09.2017 00:00:00 12,5 8,1 - - 2 1 - - E 1017,0 50 0,0
23.09.2017 23:00:00 14,5 8,1 - - 13 7 - - SE 1017,2 50 0,0
23.09.2017 22:00:00 13,8 8,5 - - 5 3 - - S 1017,3 45 0,0
23.09.2017 21:00:00 14,5 8,4 - - 4 2 - - SE 1017,3 50 0,0
23.09.2017 20:00:00 15,0 9,4 - - 8 4 - - SE 1016,6 50 0,0
23.09.2017 19:00:00 15,5 10,3 - - 9 5 - - SE 1016,7 50 0,0
23.09.2017 18:00:00 16,8 11,3 - - 11 6 - - SE 1016,6 40 0,0
23.09.2017 17:00:00 17,5 11,7 - - 5 3 - - SE 1016,8 50 0,0
23.09.2017 16:00:00 18,1 10,9 - - 13 7 - - SSE 1017,0 50 0,0
23.09.2017 15:00:00 19,1 11,3 - - 16 9 - - SSE 1017,3 27 0,0
23.09.2017 14:00:00 18,7 13,0 - - 15 8 - - SSE 1017,7 30 0,0
23.09.2017 13:00:00 16,7 13,6 - - 13 7 - - SSE 1018,3 50 0,0
23.09.2017 12:00:00 16,4 13,7 - - 13 7 - - S 1018,4 18 0,0
23.09.2017 11:00:00 16,3 13,5 - - 11 6 - - S 1018,5 50 0,0
23.09.2017 10:00:00 15,7 13,7 14,9 15,2 9 5 - - SSE 1018,3 12 0,0
23.09.2017 09:00:00 15,1 13,5 - - 5 3 - - SSE 1018,3 6 0,0
23.09.2017 08:00:00 14,5 13,2 - - 8 4 - - SSE 1018,2 50 0,0
23.09.2017 07:00:00 14,2 13,7 - - 8 4 - - SSE 1017,7 50 0,0
23.09.2017 06:00:00 11,1 10,9 - - 0 0 - - N 1017,8 9 0,2
23.09.2017 05:00:00 11,3 11,1 - - 2 1 - - S 1017,9 5 0,0
23.09.2017 04:00:00 9,8 9,2 - - 2 1 - - SSW 1018,1 5 0,0
23.09.2017 03:00:00 11,2 10,1 - - 2 1 - - S 1018,1 15 0,0
23.09.2017 02:00:00 9,5 9,3 - - 2 1 - - NE 1018,4 15 0,0
23.09.2017 01:00:00 9,0 8,7 - - 2 1 - - S 1018,5 1,0 0,0
23.09.2017 00:00:00 9,9 9,2 - - 0 0 - - N 1018,4 13 0,0
22.09.2017 23:00:00 12,4 11,2 - - 0 0 - - N 1018,0 35 0,0
22.09.2017 22:00:00 14,3 13,0 - - 5 3 - - S 1017,9 45 0,0
22.09.2017 21:00:00 14,7 13,8 - - 5 3 - - S 1017,5 28 0,2
22.09.2017 20:00:00 14,4 13,6 - - 4 2 - - S 1016,8 6 0,2
22.09.2017 19:00:00 14,2 13,6 - - 8 4 - - SSE 1016,4 3,6 0,6
22.09.2017 18:00:00 14,5 13,6 - - 11 6 - - S 1016,6 3,9 0,8
22.09.2017 17:00:00 14,3 13,1 - - 16 9 - - SSE 1016,5 6 0,8
22.09.2017 16:00:00 14,7 13,3 - - 18 10 - - SSE 1016,6 3,2 1,0
22.09.2017 15:00:00 14,5 12,2 - - 21 11 48 26 SSE 1016,6 5 0,0
22.09.2017 14:00:00 15,9 11,6 - - 26 14 52 28 S 1016,1 35 0,0
22.09.2017 13:00:00 15,6 10,8 - - 24 13 52 28 SSE 1016,3 28 0,0
22.09.2017 12:00:00 14,8 10,9 - - 11 6 - - S 1017,1 30 0,0
22.09.2017 11:00:00 13,9 10,6 - - 15 8 - - SSE 1017,5 40 0,0
22.09.2017 10:00:00 13,9 10,5 15,0 15,2 16 9 - - SSE 1018,0 45 0,0
22.09.2017 09:00:00 12,1 10,7 - - 9 5 - - SSE 1018,2 30 0,0
22.09.2017 08:00:00 8,4 8,3 - - 5 3 - - ESE 1018,3 40 0,0
22.09.2017 07:00:00 5,9 5,9 - - 2 1 - - NW 1018,3 29 0,0
22.09.2017 06:00:00 5,8 5,8 - - 4 2 - - N 1018,4 35 0,0
22.09.2017 05:00:00 5,0 4,8 - - 4 2 - - N 1018,7 17 0,0
22.09.2017 04:00:00 4,9 4,6 - - 4 2 - - SE 1018,9 20 0,0
22.09.2017 03:00:00 5,3 5,0 - - 0 0 - - N 1019,0 30 0,0
22.09.2017 02:00:00 6,0 5,6 - - 2 1 - - WSW 1019,1 45 0,2
22.09.2017 01:00:00 6,2 5,8 - - 0 0 - - N 1019,1 40 0,0
22.09.2017 00:00:00 6,7 6,2 - - 2 1 - - SSE 1019,0 - 0,0
21.09.2017 23:00:00 6,8 6,3 - - 2 1 - - SE 1018,8 50 0,0
21.09.2017 22:00:00 7,2 6,8 - - 4 2 - - SSE 1018,6 40 0,0
21.09.2017 21:00:00 7,7 7,0 - - 2 1 - - NE 1018,1 50 0,0
21.09.2017 20:00:00 8,6 7,7 - - 2 1 - - SSE 1017,7 30 0,0
21.09.2017 19:00:00 10,7 8,5 - - 2 1 - - SSE 1017,0 50 0,0
21.09.2017 18:00:00 13,4 9,3 - - 8 4 - - W 1016,5 35 0,0
21.09.2017 17:00:00 14,0 9,7 - - 13 7 - - W 1015,8 30 0,0
21.09.2017 16:00:00 13,4 9,9 - - 11 6 - - WNW 1015,3 50 0,0
21.09.2017 15:00:00 13,3 12,1 - - 8 4 - - WNW 1014,7 45 0,2
21.09.2017 14:00:00 12,5 11,4 - - 5 3 - - W 1014,2 5 0,2
21.09.2017 13:00:00 12,5 11,6 - - 13 7 - - WNW 1013,8 3,6 0,2
21.09.2017 12:00:00 13,5 11,0 - - 11 6 - - WNW 1012,9 4,6 0,0
21.09.2017 11:00:00 13,7 11,7 - - 9 5 - - NW 1012,2 35 0,0
21.09.2017 10:00:00 12,8 12,2 15,2 15,2 9 5 - - WNW 1011,8 12 0,2
21.09.2017 09:00:00 12,3 11,7 - - 9 5 - - WNW 1011,0 5 3,0
21.09.2017 08:00:00 13,3 12,7 - - 11 6 - - WNW 1009,8 4,0 2,2
21.09.2017 07:00:00 14,7 13,4 - - 15 8 - - SW 1009,0 3,3 2,8
21.09.2017 06:00:00 15,4 14,3 - - 16 9 - - S 1008,5 5 5,0
21.09.2017 05:00:00 15,1 14,0 - - 15 8 - - SSE 1008,5 10 1,6
21.09.2017 04:00:00 15,6 13,7 - - 16 9 - - SSE 1008,9 29 0,0
21.09.2017 03:00:00 15,8 13,7 - - 21 11 - - SSE 1009,7 22 0,0
21.09.2017 02:00:00 15,6 13,7 - - 21 11 - - SSE 1010,5 27 0,0
21.09.2017 01:00:00 15,2 13,7 - - 13 7 - - SSE 1010,7 19 0,0
21.09.2017 00:00:00 15,2 13,6 - - 13 7 - - SSE 1011,1 50 0,0
20.09.2017 23:00:00 15,2 13,7 - - 13 7 - - SSE 1011,5 45 0,0
20.09.2017 22:00:00 15,4 13,3 - - 18 10 - - SSE 1011,4 50 0,0
20.09.2017 21:00:00 15,2 13,4 - - 16 9 - - SSE 1011,9 13 0,0
20.09.2017 20:00:00 15,6 13,4 - - 18 10 - - SSE 1012,2 40 0,0
20.09.2017 19:00:00 15,7 13,4 - - 16 9 - - S 1012,2 50 0,0
20.09.2017 18:00:00 15,4 13,9 - - 21 11 - - SSE 1012,3 13 0,2
20.09.2017 17:00:00 16,3 13,7 - - 21 11 - - SSE 1012,6 25 0,0
20.09.2017 16:00:00 16,7 14,2 - - 22 12 - - SSE 1013,2 18 0,0
20.09.2017 15:00:00 16,5 13,7 - - 22 12 - - SSE 1013,7 9 0,0
20.09.2017 14:00:00 16,3 13,1 - - 16 9 - - SSE 1014,3 45 0,2
20.09.2017 13:00:00 15,5 12,5 - - 21 11 - - SSE 1014,7 45 0,0
20.09.2017 12:00:00 16,3 11,7 - - 21 11 - - SSE 1015,1 30 0,0
20.09.2017 11:00:00 16,5 12,9 - - 16 9 - - S 1015,5 35 0,0
20.09.2017 10:00:00 16,0 12,5 15,0 15,4 13 7 - - SSE 1015,8 30 0,0
20.09.2017 09:00:00 15,1 12,8 - - 9 5 - - SSE 1016,4 45 0,0
20.09.2017 08:00:00 14,3 12,3 - - 5 3 - - SSE 1016,6 35 0,0
20.09.2017 07:00:00 13,9 12,2 - - 8 4 - - SSE 1017,0 30 0,0
20.09.2017 06:00:00 14,1 12,4 - - 9 5 - - SE 1017,4 30 0,0
20.09.2017 05:00:00 13,4 11,8 - - 4 2 - - SSE 1017,8 35 0,0
20.09.2017 04:00:00 13,4 11,7 - - 2 1 - - SE 1018,4 45 0,0
20.09.2017 03:00:00 13,5 11,6 - - 9 5 - - SSE 1018,7 50 0,0
20.09.2017 02:00:00 13,3 11,3 - - 8 4 - - S 1019,1 50 0,0
20.09.2017 01:00:00 13,0 11,1 - - 9 5 - - SSE 1019,3 45 0,0
20.09.2017 00:00:00 12,4 10,7 - - 4 2 - - SSE 1019,9 45 0,0
19.09.2017 23:00:00 12,1 10,5 - - 2 1 - - S 1020,3 50 0,0
19.09.2017 22:00:00 11,4 9,7 - - 9 5 - - SE 1020,5 45 0,0
19.09.2017 21:00:00 12,2 9,9 - - 4 2 - - S 1021,0 50 0,0
19.09.2017 20:00:00 13,4 11,0 - - 4 2 - - SE 1020,7 50 0,0
19.09.2017 19:00:00 13,9 12,2 - - 2 1 - - SSE 1020,6 40 0,0
19.09.2017 18:00:00 14,5 11,2 - - 5 3 - - W 1020,7 35 0,0
19.09.2017 17:00:00 15,0 11,3 - - 9 5 - - W 1020,7 45 0,0
19.09.2017 16:00:00 15,4 11,3 - - 8 4 - - W 1021,0 40 0,0
19.09.2017 15:00:00 15,9 12,0 - - 9 5 - - W 1021,4 30 0,0
19.09.2017 14:00:00 17,0 8,9 - - 8 4 - - SW 1021,4 50 0,0
19.09.2017 13:00:00 17,4 8,4 - - 9 5 - - SW 1021,5 26 0,0
19.09.2017 12:00:00 15,4 8,3 - - 2 1 - - NW 1021,7 50 0,0
19.09.2017 11:00:00 16,1 10,4 - - 4 2 - - ESE 1021,5 35 0,0
19.09.2017 10:00:00 13,9 11,2 14,7 15,5 4 2 - - SE 1021,7 35 0,0

tt = temperature
td = dewpoint
tt -20cm = temperature -20cm
tt -100cm = temperature -100cm
ff = wind speed
fx = gusts
dd = wind direction
ppp = reduced air pressure
vv = visibility
rr = precipitation

Next stations